SL-16 DEB, 39865

Orbit data source: Space-Track

SL-16 DEB, 39865 is space debris in LEO originally from a launch on Fri, 25 Dec 1992 UTC launched from the Tyuratam Missile And Space Complex (TTMTR). Debris objects in space refer to the collection of defunct objects orbiting the Earth. Examples of debris include non-operational satellites, rocket bodies, and fragments generated from explosions, collisions, or faulty payload assembly.

Loading next visibility...
Identifier
39865, 1992-093LT
Orbit
LEO
Country
Flag of CISCIS
Related business
Manufacturer
Unknown
Mission
Spacecraft
Bus & Motor
Unknown
Mass
Unknown
Launch date (UTC)
1992-12-25 (33 years ago)
Launch vehicle
Unknown
Launch site
Tyuratam Missile And Space Complex (TTMTR)
Object type
Payload
Rocket body
Debris
Shape & HBR
Unknown shape, 0.1 m
Radar Cross Section
Small (<0.1 m²)

Expand to show TLE details & history
Last TLE update: 1 day ago

TLE from 1 day ago
0 SL-16 DEB
1 39865U 92093LT  26132.28950855  .00000811  00000-0  27924-3 0  9997
2 39865  71.0117 136.6186 0004619 338.6415  21.4527 14.38968051624065
Epoch: 2026-05-12T06:56Z
TLE epoch observation values (Epoch: 2026-05-12T06:56:53.538Z)
Latitude
-0.00002°
Longitude
162.3295°
Altitude
761.268 km
Speed
7.476 km/s
True Right ascension
09h 06m 28s
True Declination
0° 00' 00"
Sunlit
Object was in daylight at epoch
Visualization orbit readout
Latitude
Unknown
Longitude
Unknown
Altitude
Unknown
Speed
Unknown
Apparent Right ascension
Unknown
Apparent Declination
Unknown
Sunlit
N/A
Visualization observer readout
Local Sidereal Time
02:57:31
Azimuth
Unknown
Elevation
Unknown
Doppler factor
Unknown
Orbital elements
Apogee altitude
763.107 km
Perigee altitude
756.513 km
Semi-major axis
7,137.947 km
Eccentricity
0.00046
Inclination
71.0117°
RAAN
136.6186°
Arg. of periapsis
338.6415°
True anomaly
21.47207°
Mean anomaly
21.4527°
Eccentric anomaly
21.46238°
Mean motion
3.59901 °/min
Orbital period
100.03 mins
BSTAR
0.00027924
Loading maneuver chart data...
Computing Atmospheric mass density...
Loading historical data...
Loading historical data...
Loading historical data...
Loading historical data...
Loading historical data...
Loading historical data...
Loading historical data...

Documentation

Showing up to 5 results
|